Location: Middle Street
(51.7167°N, 0.0333°E)
Time: 20:03:39
(UTC+00:00)

Lacrosse 5 - Pass Details

Date: 20 January 2021
Orbit: 715 x 724 km, 57.0° (Epoch: 26 February)

Event Time Altitude Azimuth Distance (km) Brightness Sun altitude
Rises 17:32:01 0° 297° (WNW) 3,124 5.9 -9.7°
Reaches altitude 10° 17:34:24 10° 299° (WNW) 2,202 5.0 -10.1°
Maximum altitude 17:39:28 76° 25° (NNE) 741 1.8 -10.8°
Drops below altitude 10° 17:44:32 10° 113° (ESE) 2,196 3.9 -11.6°
Enters shadow 17:45:00 - 113° (ESE) 2,374 4.1 -11.6°
